Regional Weather Roundup
Issued by NWS

Home | Current Version | Previous Version | Graphics & Text | Print | Product List | Glossary Off
Versions: 1 2 3 4 5 6 7 8 9 10 11 12 13 14 15 16 17 18 19 20 21 22 23 24 25 26 27 28 29 30 31 32 33 34 35 36 37 38 39 40 41 42 43 44 45 46 47 48 49 50

762
ASUS43 KDMX 201101
RWRIA

WEATHER ROUNDUP FOR IOWA
NATIONAL WEATHER SERVICE DES MOINES IA
600 AM CDT SUN AUG 20 2017

NOTE: "FAIR" INDICATES FEW OR NO CLOUDS BELOW 12,000 FEET WITH NO
SIGNIFICANT WEATHER AND/OR OBSTRUCTIONS TO VISIBILITY.

* - THESE STATIONS ARE NOT NWS STATIONS...THUS NOT UNDER NWS
QUALITY CONTROL.  THEY ALSO DO NOT REPORT WEATHER SUCH
AS PRECIPITATION OR FOG.

IAZ001>003-012>014-020>022-031>034-043>046-201200-
   NORTHWEST IOWA

CITY           SKY/WX    TMP DP  RH WIND       PRES   REMARKS
CARROLL *      CLOUDY    68  64  88 SE24G32   29.80F
CHEROKEE *     CLOUDY    67  64  91 CALM      29.89R
DENISON *      CLOUDY    66  64  94 W10       29.91R
LE MARS *      CLOUDY   102 N/A N/A CALM      29.88R
ORANGE CITY *  CLOUDY    68  66  94 SE3       29.89R
SHELDON *      CLOUDY    68  63  83 S8        29.87R
SIOUX CITY     CLOUDY    67  63  87 SE6       29.87R
SPENCER        CLOUDY    69  63  81 S9        29.90R
STORM LAKE *   CLOUDY    64  63  94 W3        29.90R
$$

IAZ055>058-069>071-079>083-090>094-201200-
   SOUTHWEST IOWA

CITY           SKY/WX    TMP DP  RH WIND       PRES   REMARKS
ATLANTIC *     CLOUDY    66  66 100 SE8G14    29.93R
AUDUBON *      LGT RAIN  66  63  88 SW13      29.92R
CLARINDA *       N/A     68  68 100 CALM      29.94R
COUNCIL BLFS * CLOUDY    68  68 100 SE9       29.87F
CRESTON *      CLOUDY    66  66 100 CALM      29.96F
HARLAN  *      CLOUDY    66  66 100 S8        29.93S
LAMONI         TSTM      68  67  96 E7        29.96F
RED OAK *      CLOUDY    68  68 100 SE7       29.87F
SHENANDOAH *   CLOUDY    68  66  94 NE9       29.88R
$$

IAZ047>049-059>061-072>074-084-201200-
   CENTRAL IOWA

CITY           SKY/WX    TMP DP  RH WIND       PRES   REMARKS
AMES           TSTM      69  66  90 SW18      29.91F
ANKENY *       LGT RAIN  68  66  94 SW8G14    29.96F
BOONE *        RAIN      66  64  94 S10G17    29.91R
CHARITON *     LGT RAIN  68  66  94 NW10      30.00S
DES MOINES     RAIN      70  67  90 CALM      29.94F FOG
GRINNELL*      LGT RAIN  69  63  82 SW10G17   29.98R
KNOXVILLE *    RAIN      68  66  94 W14G22    30.00R
MARSHALLTOWN   LGT RAIN  68  65  90 SW7       29.93R
NEWTON *       CLOUDY    68  66  94 SW13G18   29.96R
PELLA *        RAIN      69  65  87 W8        30.02R
PERRY *        LGT RAIN  67  66  97 SE7       29.89F
$$

IAZ004>006-015-016-023>025-035-036-201200-
   NORTH CENTRAL IOWA

CITY           SKY/WX    TMP DP  RH WIND       PRES   REMARKS
ALGONA *       CLOUDY    68  66  94 S5        29.90R
CLARION *      CLOUDY    66  66 100 SE12      29.90F
ESTHERVILLE    CLOUDY    65  65 100 S5        29.89R
FORT DODGE *   CLOUDY    70  61  73 CALM      29.88F
MASON CITY     CLOUDY    64  62  93 SE5       29.92F
FOREST CITY *    N/A     64  63  94 SE5       29.91S
WEBSTER CITY * CLOUDY    70  64  83 SE9       29.86F
IOWA FALLS *   DRIZZLE   68  65  89 S6        29.94R
$$

IAZ007>011-017>019-026>030-037>042-050>054-066-201200-
   NORTHEAST IOWA

CITY           SKY/WX    TMP DP  RH WIND       PRES   REMARKS
CEDAR RAPIDS   CLOUDY    66  64  93 SE6       29.94F
CHARLES CITY * CLOUDY    64  64 100 SE9       29.93F
CLINTON *      CLOUDY    62  60  93 E7        29.98F
DECORAH *      CLOUDY    63  61  94 S6        29.95R
DUBUQUE        CLOUDY    65  59  81 SE8       29.98F
MONTICELLO *   CLOUDY    63  61  94 SE5       29.96S
OELWEIN *      CLOUDY    64  63  94 SE8       29.96R
WATERLOO       CLOUDY    66  63  90 SE7       29.91S
$$

IAZ064-065-067-068-078-201200-
   EAST CENTRAL IOWA

CITY           SKY/WX    TMP DP  RH WIND       PRES   REMARKS
DAVENPORT      CLOUDY    64  61  90 SE6       29.99S
IOWA CITY      CLOUDY    67  63  87 CALM      29.96F
MUSCATINE *    MOCLDY    63  61  94 CALM      29.97R FOG
QUAD CITIES    CLOUDY    63  60  90 E5        29.96S
$$

IAZ062-063-075>077-085>089-095>099-201200-
   SOUTHEAST IOWA

CITY           SKY/WX    TMP DP  RH WIND       PRES   REMARKS
BURLINGTON     CLOUDY    66  66 100 CALM      29.97R
FAIRFIELD *    CLOUDY    70  66  88 S6        29.95R
FORT MADISON * CLOUDY    68  66  94 S3        29.97R
KEOKUK *       CLOUDY    68  66  94 E3        29.96R
OSKALOOSA *    LGT RAIN  66  65  96 SE7       29.94S
OTTUMWA        LGT RAIN  68  66  93 S5        29.94R
WASHINGTON *   CLOUDY    63  63 100 E5        29.96S FOG
$$

ABBREVIATIONS USED IN REMARKS
   TC - TEMPERATURES IN CELSIUS
  WCI - WIND CHILL INDEX
   HX - HEAT INDEX
  VSB - VISIBILITY
$$





USA.gov is the U.S. government's official web portal to all federal, state and local government web resources and services.